User: anonymous   Login
Location: Unspecified
(0.0000°N, 0.0000°E)
Time: 07:28:59
(UTC+00:00)
Language:

CICERO 8 - Orbit

View from above orbital plane
View from above orbital plane
View from above satellite
View from above satellite

Ground track
Ground track

The orbit data is extracted from the following two-line orbital elements,

1 43737U 18096U   20223.92605610 +.00001852 +00000-0 +67103-4 0  9993
2 43737 097.4179 298.8239 0020057 297.8750 062.0458 15.29508458094810
Epoch (UTC): 10 August 2020 22:13:31
Eccentricity: 0.0020057
inclination: 97.4179°
perigee height: 463 km
apogee height: 491 km
right ascension of ascending node: 298.8239°
argument of perigee: 297.8750°
revolutions per day: 15.29508458
mean anomaly at epoch: 62.0458°
orbit number at epoch: 9481

The dashed part of the orbit path shows where the satellite is in the earth's shadow,  

DLR